Location: Bondula
(6.3703°N, 10.6756°W)
Time: 03:09:38
(UTC+00:00)

CZ-2C R/B - Pass Details

Date: 22 October 2019
Orbit: 668 x 784 km, 98.1° (Epoch: 16 November)

Event Time Altitude Azimuth Distance (km) Brightness Sun altitude
Rises 04:28:24 0° 20° (NNE) 3,228 5.9 -30.3°
Reaches altitude 10° 04:30:46 10° 24° (NNE) 2,290 5.1 -29.7°
Maximum altitude 04:35:42 54° 101° (ESE) 900 3.1 -28.5°
Drops below altitude 10° 04:40:29 10° 178° (S) 2,226 5.0 -27.4°
Sets 04:42:46 0° 183° (S) 3,130 5.7 -26.8°
